Regional Weather Roundup
Issued by NWS State College, PA

Home | Current Version | Previous Version | Text Only | Print | Product List | Glossary On
Versions: 1 2 3 4 5 6 7 8 9 10 11 12 13 14 15 16 17 18 19 20 21 22 23 24 25 26 27 28 29 30 31 32 33 34 35 36 37 38 39 40 41 42 43 44 45 46 47 48 49 50
000
ASUS41 KCTP 190710
RWRCTP

REGIONAL WEATHER ROUNDUP
NATIONAL WEATHER SERVICE STATE COLLEGE PA
200 AM EST SUN NOV 19 2017

Note: "fair" indicates few or no clouds below 12,000 feet with no
significant weather and/or obstructions to visibility.

* = STATION THAT DOES NOT REPORT PRECIPITATION /E.G. RAIN...SNOW...ETC/
    THUNDER OR FOG.

PAZ002>004-007>009-013>016-020>023-029>032-190800-
WESTERN PENNSYLVANIA

CITY           SKY/WX    TMP DP  RH WIND       PRES   REMARKS
ERIE           LGT RAIN  40  37  89 NW23G36   29.34R
MEADVILLE      LGT RAIN  37  37 100 NW16G23   29.34R
FRANKLIN*      LGT RAIN  38  36  92 W20       29.32R
NEW CASTLE     LGT RAIN  38  37  97 W14G20    29.43R
BEAVER COUNTY  NOT AVBL
BUTLER*        NOT AVBL
PITTSBURGH INT LGT RAIN  38  36  92 W21G31    29.43R
PITTSBURGH     LGT RAIN  39  35  86 W16G35    29.41R
INDIANA*       CLOUDY    45  43  93 NW20G30   29.33R
LATROBE        LGT RAIN  45  41  87 W23G38    29.38R
WASHINGTON CO* NOT AVBL
$$

PAZ004>006-010>012-017>019-024>028-033>037-041-042-045-046-049>053-190800-
CENTRAL PENNSYLVANIA

CITY           SKY/WX    TMP DP  RH WIND       PRES   REMARKS
BRADFORD       RAIN      44  43  96 NW23G36   29.14R FOG
DUBOIS         CLOUDY    43  39  86 W21G30    29.19R
CLEARFIELD     LGT RAIN  47  46  97 SW14G23   29.16R
JOHNSTOWN      LGT RAIN  45  43  93 W23G40    29.25R
ALTOONA        CLOUDY    53  47  79 SW21G28   29.18F
STATE COLLEGE  CLOUDY    47  44  90 SW9       29.16F
WILLIAMSPORT   CLOUDY    51  45  79 SE14G28   29.17S
SELINSGROVE    CLOUDY    49  46  90 S9        29.18F
FT INDIANTOWN  LGT RAIN  47  47 100 CALM      29.26F
CAPITAL CITY   LGT RAIN  58  50  75 S22G37    29.23F
HARRISBURG     LGT RAIN  57  52  83 S13G29    29.24F
YORK           LGT RAIN  56  53  90 S18G35    29.26F
$$

PAZ038>040-043-044-047-048-054-055-060>062-067>071-190800-
EASTERN PENNSYLVANIA

CITY           SKY/WX    TMP DP  RH WIND       PRES   REMARKS
SCRANTON       LGT RAIN  52  47  83 SW16G25   29.19F
MOUNT POCONO   LGT RAIN  47  47 100 SW22G32   29.26F
ALLENTOWN      LGT RAIN  49  46  90 CALM      29.30F FOG
QUAKERTOWN*    CLOUDY    55  52  88 SW12      29.34S
READING        LGT RAIN  56  54  93 S22G35    29.26F
LANCASTER      LGT RAIN  57  54  89 S18G30    29.30F
COATESVILLE    LGT RAIN  55  54  94 S12G20    29.35S
POTTSTOWN      LGT RAIN  56  53  90 SW12G25   29.35S
BLUE BELL      CLOUDY    55  52  88 SW12G21   29.36S
DOYLESTOWN     LGT RAIN  57  51  80 S10       29.33F
WILLOW GROVE   NOT AVBL
NORTH PHILA    LGT RAIN  62  52  69 SW14G28   29.36F
PHILADELPHIA   LGT RAIN  60  53  77 SW23G32   29.37S
$$




USA.gov is the U.S. government's official web portal to all federal, state and local government web resources and services.